Time,TemperatureF,DewpointF,PressureIn,WindDirection,WindDirectionDegrees,WindSpeedMPH,WindSpeedGustMPH,Humidity,HourlyPrecipIn,Conditions,Clouds,dailyrainin,SolarRadiationWatts/m^2,SoftwareType,DateUTC
2013-07-06 00:02:00,72.0,64.0,29.98,South,177,0.0,2.0,76,0.00,,,0.00,0,Wunderground v.1.15,2013-07-06 05:02:00,
2013-07-06 00:07:00,71.9,64.3,29.98,South,175,2.0,4.0,77,0.00,,,0.00,0,Wunderground v.1.15,2013-07-06 05:07:00,
2013-07-06 00:12:00,71.8,64.2,29.98,South,184,1.0,1.0,77,0.00,,,0.00,0,Wunderground v.1.15,2013-07-06 05:12:00,
2013-07-06 00:18:00,71.7,64.1,29.98,SSW,209,0.0,5.0,77,0.00,,,0.00,0,Wunderground v.1.15,2013-07-06 05:18:00,
2013-07-06 00:23:00,71.6,64.0,29.98,South,170,2.0,4.0,77,0.00,,,0.00,0,Wunderground v.1.15,2013-07-06 05:23:00,
2013-07-06 00:28:00,71.5,63.9,29.98,South,170,3.0,4.0,77,0.00,,,0.00,0,Wunderground v.1.15,2013-07-06 05:28:00,
2013-07-06 00:34:00,71.4,63.8,29.98,SSW,197,0.0,2.0,77,0.00,,,0.00,0,Wunderground v.1.15,2013-07-06 05:34:00,
2013-07-06 00:39:00,71.3,63.7,29.99,South,175,4.0,4.0,77,0.00,,,0.00,0,Wunderground v.1.15,2013-07-06 05:39:00,
2013-07-06 00:44:00,71.3,64.1,29.98,SSE,164,2.0,3.0,78,0.00,,,0.00,0,Wunderground v.1.15,2013-07-06 05:44:00,
2013-07-06 00:50:00,71.2,64.0,29.99,South,173,3.0,3.0,78,0.00,,,0.00,0,Wunderground v.1.15,2013-07-06 05:50:00,
2013-07-06 00:55:00,71.2,63.6,29.99,SSE,165,1.0,5.0,77,0.00,,,0.00,0,Wunderground v.1.15,2013-07-06 05:55:00,
2013-07-06 01:01:00,71.1,63.5,29.99,South,181,1.0,2.0,77,0.00,,,0.00,0,Wunderground v.1.15,2013-07-06 06:01:00,
2013-07-06 01:07:00,71.0,63.4,29.99,SSE,163,1.0,2.0,77,0.00,,,0.00,0,Wunderground v.1.15,2013-07-06 06:07:00,
2013-07-06 01:12:00,70.9,63.7,29.99,SSE,164,2.0,2.0,78,0.00,,,0.00,0,Wunderground v.1.15,2013-07-06 06:12:00,
2013-07-06 01:18:00,70.8,63.6,29.99,South,171,0.0,2.0,78,0.00,,,0.00,0,Wunderground v.1.15,2013-07-06 06:18:00,
2013-07-06 01:23:00,70.6,63.4,29.99,SSW,199,3.0,3.0,78,0.00,,,0.00,0,Wunderground v.1.15,2013-07-06 06:23:00,
2013-07-06 01:28:00,70.6,63.0,29.99,SW,220,1.0,3.0,77,0.00,,,0.00,0,Wunderground v.1.15,2013-07-06 06:28:00,
2013-07-06 01:33:00,70.6,63.0,29.99,SW,220,1.0,1.0,77,0.00,,,0.00,0,Wunderground v.1.15,2013-07-06 06:33:00,
2013-07-06 01:39:00,70.5,63.3,29.99,SE,140,0.0,1.0,78,0.00,,,0.00,0,Wunderground v.1.15,2013-07-06 06:39:00,
2013-07-06 01:44:00,70.5,63.3,29.99,WSW,238,0.0,0.0,78,0.00,,,0.00,0,Wunderground v.1.15,2013-07-06 06:44:00,
2013-07-06 01:50:00,70.5,63.3,29.99,WSW,247,0.0,3.0,78,0.00,,,0.00,0,Wunderground v.1.15,2013-07-06 06:50:00,
2013-07-06 01:56:00,70.3,62.7,29.99,WSW,246,0.0,0.0,77,0.00,,,0.00,0,Wunderground v.1.15,2013-07-06 06:56:00,
2013-07-06 02:01:00,70.2,62.6,29.99,WSW,246,0.0,0.0,77,0.00,,,0.00,0,Wunderground v.1.15,2013-07-06 07:01:00,
2013-07-06 02:06:00,69.9,62.4,29.99,WSW,246,0.0,0.0,77,0.00,,,0.00,0,Wunderground v.1.15,2013-07-06 07:06:00,
2013-07-06 02:11:00,69.7,62.5,29.98,SW,226,0.0,4.0,78,0.00,,,0.00,0,Wunderground v.1.15,2013-07-06 07:11:00,
2013-07-06 02:16:00,69.7,62.5,29.98,SSE,151,0.0,4.0,78,0.00,,,0.00,0,Wunderground v.1.15,2013-07-06 07:16:00,
2013-07-06 02:21:00,69.8,62.6,29.98,SW,225,0.0,1.0,78,0.00,,,0.00,0,Wunderground v.1.15,2013-07-06 07:21:00,
2013-07-06 02:26:00,69.9,62.7,29.98,SW,224,0.0,1.0,78,0.00,,,0.00,0,Wunderground v.1.15,2013-07-06 07:26:00,
2013-07-06 02:31:00,69.8,62.6,29.98,SW,224,0.0,0.0,78,0.00,,,0.00,0,Wunderground v.1.15,2013-07-06 07:31:00,
2013-07-06 02:36:00,69.8,62.6,29.98,SW,232,0.0,4.0,78,0.00,,,0.00,0,Wunderground v.1.15,2013-07-06 07:36:00,
2013-07-06 02:41:00,69.7,62.2,29.98,SW,232,0.0,0.0,77,0.00,,,0.00,0,Wunderground v.1.15,2013-07-06 07:41:00,
2013-07-06 02:46:00,69.5,62.0,29.98,SW,229,2.0,2.0,77,0.00,,,0.00,0,Wunderground v.1.15,2013-07-06 07:46:00,
2013-07-06 02:51:00,69.5,62.0,29.98,SW,229,0.0,0.0,77,0.00,,,0.00,0,Wunderground v.1.15,2013-07-06 07:51:00,
2013-07-06 02:56:00,69.3,62.1,29.98,SW,229,2.0,2.0,78,0.00,,,0.00,0,Wunderground v.1.15,2013-07-06 07:56:00,
2013-07-06 03:01:00,68.7,61.9,29.98,SW,229,0.0,1.0,79,0.00,,,0.00,0,Wunderground v.1.15,2013-07-06 08:01:00,
2013-07-06 03:06:00,68.4,61.6,29.98,SW,229,0.0,1.0,79,0.00,,,0.00,0,Wunderground v.1.15,2013-07-06 08:06:00,
2013-07-06 03:11:00,68.1,61.7,29.98,SW,229,0.0,0.0,80,0.00,,,0.00,0,Wunderground v.1.15,2013-07-06 08:11:00,
2013-07-06 03:16:00,67.9,61.5,29.98,SW,229,0.0,0.0,80,0.00,,,0.00,0,Wunderground v.1.15,2013-07-06 08:16:00,
2013-07-06 03:21:00,67.7,61.3,29.98,SW,229,1.0,1.0,80,0.00,,,0.00,0,Wunderground v.1.15,2013-07-06 08:21:00,
2013-07-06 03:26:00,67.5,61.8,29.98,SSW,192,2.0,3.0,82,0.00,,,0.00,0,Wunderground v.1.15,2013-07-06 08:26:00,
2013-07-06 03:31:00,67.3,61.6,29.98,SSW,192,0.0,2.0,82,0.00,,,0.00,0,Wunderground v.1.15,2013-07-06 08:31:00,
2013-07-06 03:36:00,67.2,61.9,29.98,SSW,192,0.0,2.0,83,0.00,,,0.00,0,Wunderground v.1.15,2013-07-06 08:36:00,
2013-07-06 03:41:00,67.1,61.8,29.98,SSW,200,0.0,3.0,83,0.00,,,0.00,0,Wunderground v.1.15,2013-07-06 08:41:00,
2013-07-06 03:46:00,67.1,61.8,29.98,SSW,200,0.0,3.0,83,0.00,,,0.00,0,Wunderground v.1.15,2013-07-06 08:46:00,
2013-07-06 03:51:00,67.1,61.8,29.98,SSW,200,0.0,0.0,83,0.00,,,0.00,0,Wunderground v.1.15,2013-07-06 08:51:00,
2013-07-06 03:56:00,67.0,61.7,29.98,SSW,200,0.0,0.0,83,0.00,,,0.00,0,Wunderground v.1.15,2013-07-06 08:56:00,
2013-07-06 04:01:00,66.8,61.5,29.99,SSW,200,0.0,0.0,83,0.00,,,0.00,0,Wunderground v.1.15,2013-07-06 09:01:00,
2013-07-06 04:06:00,66.7,61.4,29.99,SSW,200,0.0,0.0,83,0.00,,,0.00,0,Wunderground v.1.15,2013-07-06 09:06:00,
2013-07-06 04:11:00,66.5,61.2,29.99,SSW,200,0.0,0.0,83,0.00,,,0.00,0,Wunderground v.1.15,2013-07-06 09:11:00,
2013-07-06 04:16:00,66.3,61.0,29.99,SSW,200,0.0,0.0,83,0.00,,,0.00,0,Wunderground v.1.15,2013-07-06 09:16:00,
2013-07-06 04:21:00,66.2,60.9,29.98,SSW,200,0.0,0.0,83,0.00,,,0.00,0,Wunderground v.1.15,2013-07-06 09:21:00,
2013-07-06 04:27:00,66.0,61.0,29.99,SSW,200,0.0,0.0,84,0.00,,,0.00,0,Wunderground v.1.15,2013-07-06 09:27:00,
2013-07-06 04:32:00,65.9,60.9,29.99,SSW,200,2.0,3.0,84,0.00,,,0.00,0,Wunderground v.1.15,2013-07-06 09:32:00,
2013-07-06 04:37:00,65.6,61.0,29.99,SSW,200,1.0,3.0,85,0.00,,,0.00,0,Wunderground v.1.15,2013-07-06 09:37:00,
2013-07-06 04:42:00,65.3,60.7,29.99,SSW,200,0.0,1.0,85,0.00,,,0.00,0,Wunderground v.1.15,2013-07-06 09:42:00,
2013-07-06 04:47:00,65.3,61.0,29.99,SE,140,0.0,3.0,86,0.00,,,0.00,0,Wunderground v.1.15,2013-07-06 09:47:00,
2013-07-06 04:52:00,65.7,61.7,29.98,SSE,163,0.0,3.0,87,0.00,,,0.00,0,Wunderground v.1.15,2013-07-06 09:52:00,
2013-07-06 04:57:00,66.1,62.1,29.99,SSE,167,0.0,5.0,87,0.00,,,0.00,0,Wunderground v.1.15,2013-07-06 09:57:00,
2013-07-06 05:02:00,66.6,62.6,29.99,SSE,167,2.0,6.0,87,0.00,,,0.00,0,Wunderground v.1.15,2013-07-06 10:02:00,
2013-07-06 05:07:00,66.8,62.5,29.99,SSE,157,4.0,6.0,86,0.00,,,0.00,0,Wunderground v.1.15,2013-07-06 10:07:00,
2013-07-06 05:12:00,67.0,62.3,29.99,South,190,0.0,2.0,85,0.00,,,0.00,0,Wunderground v.1.15,2013-07-06 10:12:00,
2013-07-06 05:17:00,67.0,62.3,29.99,SSW,201,0.0,2.0,85,0.00,,,0.00,0,Wunderground v.1.15,2013-07-06 10:17:00,
2013-07-06 05:22:00,67.0,62.3,29.99,SSW,201,0.0,0.0,85,0.00,,,0.00,0,Wunderground v.1.15,2013-07-06 10:22:00,
2013-07-06 05:27:00,67.0,62.0,29.99,WSW,247,1.0,2.0,84,0.00,,,0.00,5,Wunderground v.1.15,2013-07-06 10:27:00,
2013-07-06 05:33:00,67.1,62.1,29.99,WSW,246,0.0,2.0,84,0.00,,,0.00,9,Wunderground v.1.15,2013-07-06 10:33:00,
2013-07-06 05:38:00,67.1,62.4,29.99,WSW,242,0.0,2.0,85,0.00,,,0.00,12,Wunderground v.1.15,2013-07-06 10:38:00,
2013-07-06 05:43:00,67.2,62.5,29.99,South,170,0.0,4.0,85,0.00,,,0.00,16,Wunderground v.1.15,2013-07-06 10:43:00,
2013-07-06 05:48:00,67.2,62.5,29.99,South,178,0.0,4.0,85,0.00,,,0.00,21,Wunderground v.1.15,2013-07-06 10:48:00,
2013-07-06 05:53:00,67.3,62.6,29.99,South,178,0.0,1.0,85,0.00,,,0.00,28,Wunderground v.1.15,2013-07-06 10:53:00,
2013-07-06 05:58:00,67.4,62.4,29.99,South,178,0.0,1.0,84,0.00,,,0.00,33,Wunderground v.1.15,2013-07-06 10:58:00,
2013-07-06 06:03:00,67.5,62.5,29.99,South,178,0.0,0.0,84,0.00,,,0.00,42,Wunderground v.1.15,2013-07-06 11:03:00,
2013-07-06 06:08:00,67.6,62.3,29.99,South,178,0.0,1.0,83,0.00,,,0.00,51,Wunderground v.1.15,2013-07-06 11:08:00,
2013-07-06 06:13:00,67.7,62.3,29.99,South,169,2.0,3.0,83,0.00,,,0.00,62,Wunderground v.1.15,2013-07-06 11:13:00,
2013-07-06 06:18:00,67.9,62.5,29.99,South,173,0.0,7.0,83,0.00,,,0.00,74,Wunderground v.1.15,2013-07-06 11:18:00,
2013-07-06 06:23:00,68.2,62.8,29.99,South,173,0.0,2.0,83,0.00,,,0.00,88,Wunderground v.1.15,2013-07-06 11:23:00,
2013-07-06 06:28:00,68.5,63.1,29.99,South,173,0.0,3.0,83,0.00,,,0.00,102,Wunderground v.1.15,2013-07-06 11:28:00,
2013-07-06 06:33:00,68.8,63.4,29.99,South,173,0.0,1.0,83,0.00,,,0.00,114,Wunderground v.1.15,2013-07-06 11:33:00,
2013-07-06 06:38:00,69.1,63.7,29.99,South,173,0.0,1.0,83,0.00,,,0.00,128,Wunderground v.1.15,2013-07-06 11:38:00,
2013-07-06 06:43:00,69.4,64.0,29.99,South,173,0.0,0.0,83,0.00,,,0.00,142,Wunderground v.1.15,2013-07-06 11:43:00,
2013-07-06 06:48:00,69.7,64.0,29.99,South,173,0.0,2.0,82,0.00,,,0.00,158,Wunderground v.1.15,2013-07-06 11:48:00,
2013-07-06 06:53:00,70.0,63.9,29.99,SSW,205,0.0,3.0,81,0.00,,,0.00,176,Wunderground v.1.15,2013-07-06 11:53:00,
2013-07-06 06:58:00,70.3,63.8,29.99,South,171,1.0,4.0,80,0.00,,,0.00,193,Wunderground v.1.15,2013-07-06 11:58:00,
2013-07-06 07:03:00,70.4,63.9,29.99,SSW,195,0.0,3.0,80,0.00,,,0.00,209,Wunderground v.1.15,2013-07-06 12:03:00,
2013-07-06 07:08:00,70.6,63.8,29.99,South,188,0.0,5.0,79,0.00,,,0.00,221,Wunderground v.1.15,2013-07-06 12:08:00,
2013-07-06 07:13:00,70.8,64.0,29.99,South,169,2.0,5.0,79,0.00,,,0.00,237,Wunderground v.1.15,2013-07-06 12:13:00,
2013-07-06 07:18:00,70.9,64.1,29.99,South,177,3.0,5.0,79,0.00,,,0.00,251,Wunderground v.1.15,2013-07-06 12:18:00,
2013-07-06 07:23:00,71.2,64.7,29.99,SSE,158,3.0,4.0,80,0.00,,,0.00,265,Wunderground v.1.15,2013-07-06 12:23:00,
2013-07-06 07:28:00,71.3,64.8,30.00,SSE,163,0.0,4.0,80,0.00,,,0.00,281,Wunderground v.1.15,2013-07-06 12:28:00,
2013-07-06 07:33:00,71.6,64.7,30.00,South,171,0.0,4.0,79,0.00,,,0.00,297,Wunderground v.1.15,2013-07-06 12:33:00,
2013-07-06 07:38:00,71.9,65.0,29.99,SSE,165,5.0,5.0,79,0.00,,,0.00,313,Wunderground v.1.15,2013-07-06 12:38:00,
2013-07-06 07:43:00,71.7,64.8,29.99,SSW,195,2.0,6.0,79,0.00,,,0.00,330,Wunderground v.1.15,2013-07-06 12:43:00,
2013-07-06 07:48:00,71.7,65.2,29.99,SSE,158,4.0,6.0,80,0.00,,,0.00,345,Wunderground v.1.15,2013-07-06 12:48:00,
2013-07-06 07:53:00,71.8,65.3,29.99,SSE,155,1.0,6.0,80,0.00,,,0.00,357,Wunderground v.1.15,2013-07-06 12:53:00,
2013-07-06 07:58:00,71.7,65.2,30.00,SSE,150,2.0,8.0,80,0.00,,,0.00,376,Wunderground v.1.15,2013-07-06 12:58:00,
2013-07-06 08:03:00,71.9,65.4,30.00,South,169,4.0,6.0,80,0.00,,,0.00,390,Wunderground v.1.15,2013-07-06 13:03:00,
2013-07-06 08:08:00,72.0,65.5,30.00,SSW,209,4.0,7.0,80,0.00,,,0.00,406,Wunderground v.1.15,2013-07-06 13:08:00,
2013-07-06 08:13:00,72.2,65.7,30.00,SSE,165,1.0,5.0,80,0.00,,,0.00,422,Wunderground v.1.15,2013-07-06 13:13:00,
2013-07-06 08:18:00,72.6,66.1,30.00,SSE,168,7.0,7.0,80,0.00,,,0.00,436,Wunderground v.1.15,2013-07-06 13:18:00,
2013-07-06 08:23:00,72.8,65.9,30.00,SSE,165,5.0,5.0,79,0.00,,,0.00,450,Wunderground v.1.15,2013-07-06 13:23:00,
2013-07-06 08:28:00,73.1,66.2,30.00,South,188,0.0,6.0,79,0.00,,,0.00,469,Wunderground v.1.15,2013-07-06 13:28:00,
2013-07-06 08:33:00,73.5,66.2,30.00,SSE,168,0.0,2.0,78,0.00,,,0.00,485,Wunderground v.1.15,2013-07-06 13:33:00,
2013-07-06 08:38:00,73.8,65.4,29.99,SSE,163,2.0,7.0,75,0.00,,,0.00,499,Wunderground v.1.15,2013-07-06 13:38:00,
2013-07-06 08:43:00,74.2,66.1,30.00,SSE,157,0.0,7.0,76,0.00,,,0.00,513,Wunderground v.1.15,2013-07-06 13:43:00,
2013-07-06 08:48:00,74.5,66.4,30.00,SSW,203,2.0,7.0,76,0.00,,,0.00,527,Wunderground v.1.15,2013-07-06 13:48:00,
2013-07-06 08:54:00,75.0,66.5,29.99,SSW,209,0.0,4.0,75,0.00,,,0.00,543,Wunderground v.1.15,2013-07-06 13:54:00,
2013-07-06 08:59:00,75.5,66.2,29.99,WSW,251,0.0,5.0,73,0.00,,,0.00,554,Wunderground v.1.15,2013-07-06 13:59:00,
2013-07-06 09:04:00,75.9,66.6,30.00,WSW,250,1.0,5.0,73,0.00,,,0.00,573,Wunderground v.1.15,2013-07-06 14:04:00,
2013-07-06 09:09:00,76.2,66.5,29.99,SSW,208,1.0,5.0,72,0.00,,,0.00,582,Wunderground v.1.15,2013-07-06 14:09:00,
2013-07-06 09:14:00,76.5,67.2,30.00,WSW,238,1.0,3.0,73,0.00,,,0.00,594,Wunderground v.1.15,2013-07-06 14:14:00,
2013-07-06 09:19:00,76.7,67.4,30.00,SSE,161,0.0,7.0,73,0.00,,,0.00,608,Wunderground v.1.15,2013-07-06 14:19:00,
2013-07-06 09:24:00,76.9,68.0,30.00,SSE,161,5.0,5.0,74,0.00,,,0.00,626,Wunderground v.1.15,2013-07-06 14:24:00,
2013-07-06 09:29:00,76.6,67.3,30.00,SSW,201,0.0,8.0,73,0.00,,,0.00,636,Wunderground v.1.15,2013-07-06 14:29:00,
2013-07-06 09:34:00,76.4,67.9,29.99,South,173,3.0,7.0,75,0.00,,,0.00,652,Wunderground v.1.15,2013-07-06 14:34:00,
2013-07-06 09:39:00,76.2,67.3,29.99,SSE,167,5.0,7.0,74,0.00,,,0.00,666,Wunderground v.1.15,2013-07-06 14:39:00,
2013-07-06 09:44:00,76.1,67.6,29.99,SSE,163,6.0,6.0,75,0.00,,,0.00,679,Wunderground v.1.15,2013-07-06 14:44:00,
2013-07-06 09:49:00,76.2,66.9,29.99,SSE,152,5.0,8.0,73,0.00,,,0.00,691,Wunderground v.1.15,2013-07-06 14:49:00,
2013-07-06 09:54:00,76.3,67.8,29.99,SSE,167,1.0,8.0,75,0.00,,,0.00,703,Wunderground v.1.15,2013-07-06 14:54:00,
2013-07-06 09:59:00,76.3,67.4,29.99,South,169,4.0,8.0,74,0.00,,,0.00,715,Wunderground v.1.15,2013-07-06 14:59:00,
2013-07-06 10:04:00,76.7,68.6,29.99,South,191,1.0,5.0,76,0.00,,,0.00,728,Wunderground v.1.15,2013-07-06 15:04:00,
2013-07-06 10:09:00,77.0,68.1,29.99,SSE,167,7.0,7.0,74,0.00,,,0.00,738,Wunderground v.1.15,2013-07-06 15:09:00,
2013-07-06 10:14:00,77.3,68.0,29.99,South,176,0.0,8.0,73,0.00,,,0.00,747,Wunderground v.1.15,2013-07-06 15:14:00,
2013-07-06 10:19:00,77.6,68.7,29.99,SSE,165,0.0,8.0,74,0.00,,,0.00,759,Wunderground v.1.15,2013-07-06 15:19:00,
2013-07-06 10:24:00,77.9,67.7,29.99,South,169,1.0,7.0,71,0.00,,,0.00,768,Wunderground v.1.15,2013-07-06 15:24:00,
2013-07-06 10:29:00,78.1,68.3,29.98,SSE,163,0.0,7.0,72,0.00,,,0.00,780,Wunderground v.1.15,2013-07-06 15:29:00,
2013-07-06 10:34:00,78.6,69.2,29.99,SSE,165,3.0,6.0,73,0.00,,,0.00,791,Wunderground v.1.15,2013-07-06 15:34:00,
2013-07-06 10:39:00,78.6,68.4,29.98,South,170,3.0,7.0,71,0.00,,,0.00,802,Wunderground v.1.15,2013-07-06 15:39:00,
2013-07-06 10:44:00,78.5,68.7,29.98,SSE,151,5.0,8.0,72,0.00,,,0.00,809,Wunderground v.1.15,2013-07-06 15:44:00,
2013-07-06 10:49:00,78.7,68.9,29.98,SW,235,1.0,9.0,72,0.00,,,0.00,821,Wunderground v.1.15,2013-07-06 15:49:00,
2013-07-06 10:54:00,78.9,68.3,29.98,SSE,153,2.0,8.0,70,0.00,,,0.00,828,Wunderground v.1.15,2013-07-06 15:54:00,
2013-07-06 11:00:00,79.4,68.8,29.98,SSE,158,5.0,5.0,70,0.00,,,0.00,838,Wunderground v.1.15,2013-07-06 16:00:00,
2013-07-06 11:05:00,79.7,68.6,29.98,SSW,197,3.0,9.0,69,0.00,,,0.00,846,Wunderground v.1.15,2013-07-06 16:05:00,
2013-07-06 11:10:00,79.8,68.7,29.98,South,182,4.0,4.0,69,0.00,,,0.00,853,Wunderground v.1.15,2013-07-06 16:10:00,
2013-07-06 11:15:00,79.7,69.5,29.98,SSE,167,4.0,7.0,71,0.00,,,0.00,854,Wunderground v.1.15,2013-07-06 16:15:00,
2013-07-06 11:20:00,79.6,69.4,29.98,SE,142,5.0,5.0,71,0.00,,,0.00,867,Wunderground v.1.15,2013-07-06 16:20:00,
2013-07-06 11:25:00,79.8,69.1,29.98,South,169,5.0,7.0,70,0.00,,,0.00,872,Wunderground v.1.15,2013-07-06 16:25:00,
2013-07-06 11:30:00,79.9,68.8,29.98,SSE,151,6.0,6.0,69,0.00,,,0.00,881,Wunderground v.1.15,2013-07-06 16:30:00,
2013-07-06 11:35:00,80.3,68.8,29.98,WSW,241,0.0,8.0,68,0.00,,,0.00,886,Wunderground v.1.15,2013-07-06 16:35:00,
2013-07-06 11:41:00,81.0,69.9,29.98,South,175,2.0,5.0,69,0.00,,,0.00,896,Wunderground v.1.15,2013-07-06 16:41:00,
2013-07-06 11:46:00,81.4,69.8,29.97,SSE,166,4.0,8.0,68,0.00,,,0.00,896,Wunderground v.1.15,2013-07-06 16:46:00,
2013-07-06 11:51:00,81.4,69.8,29.97,SSE,162,4.0,5.0,68,0.00,,,0.00,904,Wunderground v.1.15,2013-07-06 16:51:00,
2013-07-06 11:56:00,81.3,69.7,29.97,SW,227,1.0,7.0,68,0.00,,,0.00,905,Wunderground v.1.15,2013-07-06 16:56:00,
2013-07-06 12:02:00,81.4,68.9,29.97,SW,229,0.0,3.0,66,0.00,,,0.00,914,Wunderground v.1.15,2013-07-06 17:02:00,
2013-07-06 12:07:00,81.7,69.7,29.97,SSE,167,4.0,9.0,67,0.00,,,0.00,919,Wunderground v.1.15,2013-07-06 17:07:00,
2013-07-06 12:12:00,82.0,70.4,29.97,South,174,2.0,6.0,68,0.00,,,0.00,923,Wunderground v.1.15,2013-07-06 17:12:00,
2013-07-06 12:18:00,82.5,70.0,29.97,South,172,4.0,6.0,66,0.00,,,0.00,939,Wunderground v.1.15,2013-07-06 17:18:00,
2013-07-06 12:23:00,82.8,68.0,29.97,SSE,163,6.0,6.0,61,0.00,,,0.00,939,Wunderground v.1.15,2013-07-06 17:23:00,
2013-07-06 12:28:00,82.9,68.5,29.97,SSW,206,0.0,6.0,62,0.00,,,0.00,949,Wunderground v.1.15,2013-07-06 17:28:00,
2013-07-06 12:34:00,83.2,69.8,29.97,SSE,165,6.0,7.0,64,0.00,,,0.00,932,Wunderground v.1.15,2013-07-06 17:34:00,
2013-07-06 12:39:00,82.9,69.0,29.96,SSE,163,0.0,7.0,63,0.00,,,0.00,937,Wunderground v.1.15,2013-07-06 17:39:00,
2013-07-06 12:44:00,82.8,69.8,29.96,SSE,153,2.0,6.0,65,0.00,,,0.00,939,Wunderground v.1.15,2013-07-06 17:44:00,
2013-07-06 12:50:00,83.0,69.1,29.96,South,169,5.0,5.0,63,0.00,,,0.00,935,Wunderground v.1.15,2013-07-06 17:50:00,
2013-07-06 12:55:00,82.9,69.0,29.96,South,179,1.0,8.0,63,0.00,,,0.00,946,Wunderground v.1.15,2013-07-06 17:55:00,
2013-07-06 13:01:00,83.1,69.7,29.96,West,263,0.0,3.0,64,0.00,,,0.00,944,Wunderground v.1.15,2013-07-06 18:01:00,
2013-07-06 13:07:00,83.1,69.7,29.96,South,188,3.0,8.0,64,0.00,,,0.00,949,Wunderground v.1.15,2013-07-06 18:07:00,
2013-07-06 13:13:00,83.1,69.2,29.96,South,179,1.0,5.0,63,0.00,,,0.00,954,Wunderground v.1.15,2013-07-06 18:13:00,
2013-07-06 13:19:00,83.4,69.0,29.96,West,259,2.0,7.0,62,0.00,,,0.00,953,Wunderground v.1.15,2013-07-06 18:19:00,
2013-07-06 13:24:00,83.1,69.2,29.96,West,267,1.0,9.0,63,0.00,,,0.00,951,Wunderground v.1.15,2013-07-06 18:24:00,
2013-07-06 13:30:00,82.9,69.0,29.95,SSE,163,3.0,4.0,63,0.00,,,0.00,944,Wunderground v.1.15,2013-07-06 18:30:00,
2013-07-06 13:35:00,82.7,68.8,29.95,SSW,194,6.0,9.0,63,0.00,,,0.00,949,Wunderground v.1.15,2013-07-06 18:35:00,
2013-07-06 13:42:00,83.0,69.1,29.94,South,170,4.0,6.0,63,0.00,,,0.00,942,Wunderground v.1.15,2013-07-06 18:42:00,
2013-07-06 13:47:00,82.9,69.0,29.95,South,177,3.0,8.0,63,0.00,,,0.00,932,Wunderground v.1.15,2013-07-06 18:47:00,
2013-07-06 13:52:00,83.0,69.6,29.95,SSE,165,5.0,5.0,64,0.00,,,0.00,944,Wunderground v.1.15,2013-07-06 18:52:00,
2013-07-06 13:58:00,83.0,69.1,29.95,SSE,155,6.0,6.0,63,0.00,,,0.00,942,Wunderground v.1.15,2013-07-06 18:58:00,
2013-07-06 14:03:00,83.0,69.1,29.95,South,172,4.0,4.0,63,0.00,,,0.00,925,Wunderground v.1.15,2013-07-06 19:03:00,
2013-07-06 14:08:00,83.0,68.2,29.94,WSW,247,0.0,7.0,61,0.00,,,0.00,954,Wunderground v.1.15,2013-07-06 19:08:00,
2013-07-06 14:14:00,83.2,69.3,29.95,South,169,6.0,7.0,63,0.00,,,0.00,958,Wunderground v.1.15,2013-07-06 19:14:00,
2013-07-06 14:19:00,83.0,70.5,29.95,SSE,163,6.0,7.0,66,0.00,,,0.00,947,Wunderground v.1.15,2013-07-06 19:19:00,
2013-07-06 14:25:00,83.0,69.6,29.95,SSE,163,4.0,8.0,64,0.00,,,0.00,928,Wunderground v.1.15,2013-07-06 19:25:00,
2013-07-06 14:30:00,83.0,68.2,29.94,South,172,5.0,6.0,61,0.00,,,0.00,904,Wunderground v.1.15,2013-07-06 19:30:00,
2013-07-06 14:36:00,82.9,69.5,29.94,SSE,153,5.0,10.0,64,0.00,,,0.00,874,Wunderground v.1.15,2013-07-06 19:36:00,
2013-07-06 14:41:00,83.0,69.6,29.94,South,170,2.0,5.0,64,0.00,,,0.00,877,Wunderground v.1.15,2013-07-06 19:41:00,
2013-07-06 14:46:00,83.4,69.5,29.94,SSW,198,2.0,5.0,63,0.00,,,0.00,872,Wunderground v.1.15,2013-07-06 19:46:00,
2013-07-06 14:51:00,83.5,69.6,29.94,SSE,164,1.0,8.0,63,0.00,,,0.00,900,Wunderground v.1.15,2013-07-06 19:51:00,
2013-07-06 14:57:00,83.4,69.0,29.95,SE,135,1.0,8.0,62,0.00,,,0.00,916,Wunderground v.1.15,2013-07-06 19:57:00,
2013-07-06 15:02:00,83.6,69.2,29.94,South,175,3.0,3.0,62,0.00,,,0.00,888,Wunderground v.1.15,2013-07-06 20:02:00,
2013-07-06 15:07:00,83.6,69.7,29.94,SSE,168,0.0,7.0,63,0.00,,,0.00,863,Wunderground v.1.15,2013-07-06 20:07:00,
2013-07-06 15:13:00,83.6,69.2,29.94,SSE,159,4.0,5.0,62,0.00,,,0.00,826,Wunderground v.1.15,2013-07-06 20:13:00,
2013-07-06 15:18:00,83.6,69.2,29.94,SSE,165,4.0,5.0,62,0.00,,,0.00,837,Wunderground v.1.15,2013-07-06 20:18:00,
2013-07-06 15:23:00,83.6,69.2,29.94,SSE,165,3.0,7.0,62,0.00,,,0.00,886,Wunderground v.1.15,2013-07-06 20:23:00,
2013-07-06 15:29:00,83.6,69.2,29.94,SSE,168,6.0,8.0,62,0.00,,,0.00,844,Wunderground v.1.15,2013-07-06 20:29:00,
2013-07-06 15:34:00,83.6,70.6,29.94,SSE,167,4.0,6.0,65,0.00,,,0.00,795,Wunderground v.1.15,2013-07-06 20:34:00,
2013-07-06 15:41:00,83.8,68.9,29.94,SSE,152,3.0,5.0,61,0.00,,,0.00,756,Wunderground v.1.15,2013-07-06 20:41:00,
2013-07-06 15:46:00,83.9,68.5,29.94,SSE,163,6.0,7.0,60,0.00,,,0.00,733,Wunderground v.1.15,2013-07-06 20:46:00,
2013-07-06 15:51:00,83.6,69.2,29.94,SSE,148,4.0,7.0,62,0.00,,,0.00,735,Wunderground v.1.15,2013-07-06 20:51:00,
2013-07-06 15:57:00,83.4,69.0,29.94,South,186,0.0,7.0,62,0.00,,,0.00,738,Wunderground v.1.15,2013-07-06 20:57:00,
2013-07-06 16:02:00,83.7,69.8,29.94,SSE,158,3.0,9.0,63,0.00,,,0.00,749,Wunderground v.1.15,2013-07-06 21:02:00,
2013-07-06 16:10:00,83.7,69.8,29.93,South,176,7.0,7.0,63,0.00,,,0.00,756,Wunderground v.1.15,2013-07-06 21:10:00,
2013-07-06 16:15:00,83.6,69.2,29.93,SE,144,1.0,7.0,62,0.00,,,0.00,679,Wunderground v.1.15,2013-07-06 21:15:00,
2013-07-06 16:21:00,83.6,69.7,29.93,SSE,151,2.0,6.0,63,0.00,,,0.00,670,Wunderground v.1.15,2013-07-06 21:21:00,
2013-07-06 16:26:00,83.4,69.5,29.93,SSE,155,2.0,6.0,63,0.00,,,0.00,668,Wunderground v.1.15,2013-07-06 21:26:00,
2013-07-06 16:32:00,83.3,69.8,29.93,SSE,168,5.0,7.0,64,0.00,,,0.00,629,Wunderground v.1.15,2013-07-06 21:32:00,
2013-07-06 16:37:00,83.1,69.7,29.93,SE,128,3.0,8.0,64,0.00,,,0.00,615,Wunderground v.1.15,2013-07-06 21:37:00,
2013-07-06 16:42:00,83.0,69.6,29.93,SSW,193,0.0,5.0,64,0.00,,,0.00,557,Wunderground v.1.15,2013-07-06 21:42:00,
2013-07-06 16:51:00,83.1,68.3,29.93,SSE,158,0.0,3.0,61,0.00,,,0.00,149,Wunderground v.1.15,2013-07-06 21:51:00,
2013-07-06 16:56:00,82.9,68.5,29.93,SE,140,1.0,4.0,62,0.00,,,0.00,142,Wunderground v.1.15,2013-07-06 21:56:00,
2013-07-06 17:01:00,82.7,68.4,29.92,West,270,0.0,2.0,62,0.00,,,0.00,547,Wunderground v.1.15,2013-07-06 22:01:00,
2013-07-06 17:06:00,82.9,69.5,29.92,SSE,160,2.0,2.0,64,0.00,,,0.00,526,Wunderground v.1.15,2013-07-06 22:06:00,
2013-07-06 17:12:00,83.1,69.7,29.93,SW,236,0.0,3.0,64,0.00,,,0.00,153,Wunderground v.1.15,2013-07-06 22:12:00,
2013-07-06 17:17:00,83.0,70.0,29.92,South,174,1.0,3.0,65,0.00,,,0.00,510,Wunderground v.1.15,2013-07-06 22:17:00,
2013-07-06 17:22:00,82.8,68.9,29.92,SSE,160,0.0,3.0,63,0.00,,,0.00,490,Wunderground v.1.15,2013-07-06 22:22:00,
2013-07-06 17:27:00,82.9,68.5,29.92,South,186,0.0,4.0,62,0.00,,,0.00,457,Wunderground v.1.15,2013-07-06 22:27:00,
2013-07-06 17:33:00,82.8,68.4,29.92,SW,215,0.0,1.0,62,0.00,,,0.00,125,Wunderground v.1.15,2013-07-06 22:33:00,
2013-07-06 17:38:00,82.6,68.7,29.92,SW,215,0.0,1.0,63,0.00,,,0.00,174,Wunderground v.1.15,2013-07-06 22:38:00,
2013-07-06 17:43:00,82.5,69.1,29.92,South,181,0.0,3.0,64,0.00,,,0.00,431,Wunderground v.1.15,2013-07-06 22:43:00,
2013-07-06 17:48:00,82.5,68.6,29.92,South,184,4.0,4.0,63,0.00,,,0.00,422,Wunderground v.1.15,2013-07-06 22:48:00,
2013-07-06 17:54:00,82.5,68.6,29.92,SSE,165,0.0,4.0,63,0.00,,,0.00,294,Wunderground v.1.15,2013-07-06 22:54:00,
2013-07-06 18:00:00,82.3,68.4,29.92,SSE,165,0.0,1.0,63,0.00,,,0.00,297,Wunderground v.1.15,2013-07-06 23:00:00,
2013-07-06 18:05:00,82.0,67.7,29.92,SSW,196,0.0,2.0,62,0.00,,,0.00,98,Wunderground v.1.15,2013-07-06 23:05:00,
2013-07-06 18:11:00,81.7,67.9,29.92,SSE,168,1.0,1.0,63,0.00,,,0.00,329,Wunderground v.1.15,2013-07-06 23:11:00,
2013-07-06 18:16:00,81.6,68.2,29.92,SSE,163,0.0,4.0,64,0.00,,,0.00,322,Wunderground v.1.15,2013-07-06 23:16:00,
2013-07-06 18:22:00,81.6,68.7,29.91,SW,221,0.0,2.0,65,0.00,,,0.00,309,Wunderground v.1.15,2013-07-06 23:22:00,
2013-07-06 18:28:00,81.5,68.1,29.91,SE,146,1.0,5.0,64,0.00,,,0.00,97,Wunderground v.1.15,2013-07-06 23:28:00,
2013-07-06 18:33:00,81.4,68.1,29.91,South,174,0.0,4.0,64,0.00,,,0.00,264,Wunderground v.1.15,2013-07-06 23:33:00,
2013-07-06 18:39:00,81.4,67.1,29.91,SSW,204,0.0,4.0,62,0.00,,,0.00,232,Wunderground v.1.15,2013-07-06 23:39:00,
2013-07-06 18:44:00,81.2,67.9,29.91,SSE,147,4.0,4.0,64,0.00,,,0.00,65,Wunderground v.1.15,2013-07-06 23:44:00,
2013-07-06 18:50:00,80.8,67.5,29.91,SE,146,0.0,1.0,64,0.00,,,0.00,53,Wunderground v.1.15,2013-07-06 23:50:00,
2013-07-06 18:55:00,80.6,67.3,29.91,South,180,0.0,2.0,64,0.00,,,0.00,60,Wunderground v.1.15,2013-07-06 23:55:00,
2013-07-06 19:01:00,80.3,67.9,29.91,South,180,1.0,1.0,66,0.00,,,0.00,60,Wunderground v.1.15,2013-07-07 00:01:00,
2013-07-06 19:06:00,80.1,68.2,29.91,SW,215,2.0,2.0,67,0.00,,,0.00,120,Wunderground v.1.15,2013-07-07 00:06:00,
2013-07-06 19:11:00,80.0,68.1,29.90,SSE,158,1.0,3.0,67,0.00,,,0.00,53,Wunderground v.1.15,2013-07-07 00:11:00,
2013-07-06 19:16:00,79.8,68.7,29.91,SSE,159,2.0,4.0,69,0.00,,,0.00,123,Wunderground v.1.15,2013-07-07 00:16:00,
2013-07-06 19:22:00,79.7,68.6,29.91,SSE,163,3.0,3.0,69,0.00,,,0.00,113,Wunderground v.1.15,2013-07-07 00:22:00,
2013-07-06 19:27:00,79.6,68.5,29.90,SSE,164,3.0,3.0,69,0.00,,,0.00,100,Wunderground v.1.15,2013-07-07 00:27:00,
2013-07-06 19:32:00,79.6,68.5,29.90,SSE,166,3.0,3.0,69,0.00,,,0.00,84,Wunderground v.1.15,2013-07-07 00:32:00,
2013-07-06 19:37:00,79.6,68.1,29.91,SSE,147,0.0,3.0,68,0.00,,,0.00,74,Wunderground v.1.15,2013-07-07 00:37:00,
2013-07-06 19:43:00,79.6,67.7,29.91,SSE,162,2.0,2.0,67,0.00,,,0.00,65,Wunderground v.1.15,2013-07-07 00:43:00,
2013-07-06 19:48:00,79.7,67.3,29.91,South,182,0.0,2.0,66,0.00,,,0.00,54,Wunderground v.1.15,2013-07-07 00:48:00,
2013-07-06 19:53:00,79.8,67.9,29.91,West,259,1.0,1.0,67,0.00,,,0.00,46,Wunderground v.1.15,2013-07-07 00:53:00,
2013-07-06 19:58:00,79.8,67.9,29.91,SSW,192,0.0,1.0,67,0.00,,,0.00,37,Wunderground v.1.15,2013-07-07 00:58:00,
2013-07-06 20:04:00,79.6,67.7,29.91,South,173,0.0,1.0,67,0.00,,,0.00,26,Wunderground v.1.15,2013-07-07 01:04:00,
2013-07-06 20:11:00,79.4,67.5,29.91,SW,215,0.0,0.0,67,0.00,,,0.00,23,Wunderground v.1.15,2013-07-07 01:11:00,
2013-07-06 20:16:00,79.2,67.7,29.91,SW,217,0.0,2.0,68,0.00,,,0.00,18,Wunderground v.1.15,2013-07-07 01:16:00,
2013-07-06 20:23:00,79.0,67.5,29.92,SW,217,0.0,0.0,68,0.00,,,0.00,12,Wunderground v.1.15,2013-07-07 01:23:00,
2013-07-06 20:29:00,78.8,67.8,29.91,SW,219,0.0,1.0,69,0.00,,,0.00,9,Wunderground v.1.15,2013-07-07 01:29:00,
2013-07-06 20:35:00,78.5,67.9,29.91,SW,220,0.0,1.0,70,0.00,,,0.00,5,Wunderground v.1.15,2013-07-07 01:35:00,
2013-07-06 20:40:00,78.3,67.7,29.91,South,177,0.0,0.0,70,0.00,,,0.00,0,Wunderground v.1.15,2013-07-07 01:40:00,
2013-07-06 20:45:00,78.2,67.6,29.91,South,178,0.0,0.0,70,0.00,,,0.00,0,Wunderground v.1.15,2013-07-07 01:45:00,
2013-07-06 20:50:00,77.9,67.7,29.92,South,178,0.0,0.0,71,0.00,,,0.00,0,Wunderground v.1.15,2013-07-07 01:50:00,
2013-07-06 20:55:00,77.7,67.5,29.92,South,186,1.0,1.0,71,0.00,,,0.00,0,Wunderground v.1.15,2013-07-07 01:55:00,
2013-07-06 21:01:00,77.4,67.7,29.92,South,186,0.0,0.0,72,0.00,,,0.00,0,Wunderground v.1.15,2013-07-07 02:01:00,
2013-07-06 21:06:00,77.1,67.4,29.92,SW,223,0.0,1.0,72,0.00,,,0.00,0,Wunderground v.1.15,2013-07-07 02:06:00,
2013-07-06 21:11:00,77.0,67.7,29.92,SW,223,0.0,0.0,73,0.00,,,0.00,0,Wunderground v.1.15,2013-07-07 02:11:00,
2013-07-06 21:16:00,76.8,67.5,29.92,SW,223,0.0,0.0,73,0.00,,,0.00,0,Wunderground v.1.15,2013-07-07 02:16:00,
2013-07-06 21:21:00,76.5,67.6,29.93,SW,220,0.0,1.0,74,0.00,,,0.00,0,Wunderground v.1.15,2013-07-07 02:21:00,
2013-07-06 21:27:00,76.1,67.6,29.93,SW,220,0.0,1.0,75,0.00,,,0.00,0,Wunderground v.1.15,2013-07-07 02:27:00,
2013-07-06 21:32:00,75.7,67.2,29.93,SW,220,0.0,0.0,75,0.00,,,0.00,0,Wunderground v.1.15,2013-07-07 02:32:00,
2013-07-06 21:37:00,75.4,67.3,29.93,SW,221,0.0,0.0,76,0.00,,,0.00,0,Wunderground v.1.15,2013-07-07 02:37:00,
2013-07-06 21:42:00,75.1,67.0,29.93,South,180,0.0,0.0,76,0.00,,,0.00,0,Wunderground v.1.15,2013-07-07 02:42:00,
2013-07-06 21:48:00,74.8,67.5,29.93,South,180,0.0,0.0,78,0.00,,,0.00,0,Wunderground v.1.15,2013-07-07 02:48:00,
2013-07-06 21:53:00,74.6,67.7,29.93,South,180,0.0,1.0,79,0.00,,,0.00,0,Wunderground v.1.15,2013-07-07 02:53:00,
2013-07-06 21:58:00,74.4,67.8,29.94,South,181,0.0,2.0,80,0.00,,,0.00,0,Wunderground v.1.15,2013-07-07 02:58:00,
2013-07-06 22:04:00,73.9,67.7,29.94,South,181,0.0,2.0,81,0.00,,,0.00,0,Wunderground v.1.15,2013-07-07 03:04:00,
2013-07-06 22:09:00,73.5,67.7,29.94,South,181,0.0,2.0,82,0.00,,,0.00,0,Wunderground v.1.15,2013-07-07 03:09:00,
2013-07-06 22:14:00,73.1,68.0,29.94,South,181,2.0,3.0,84,0.00,,,0.00,0,Wunderground v.1.15,2013-07-07 03:14:00,
2013-07-06 22:19:00,72.8,67.7,29.94,South,181,0.0,3.0,84,0.00,,,0.00,0,Wunderground v.1.15,2013-07-07 03:19:00,
2013-07-06 22:25:00,72.6,67.8,29.93,South,171,2.0,4.0,85,0.00,,,0.00,0,Wunderground v.1.15,2013-07-07 03:25:00,
2013-07-06 22:31:00,72.6,67.8,29.93,South,178,0.0,1.0,85,0.00,,,0.00,0,Wunderground v.1.15,2013-07-07 03:31:00,
2013-07-06 22:36:00,72.7,67.6,29.93,South,178,0.0,1.0,84,0.00,,,0.00,0,Wunderground v.1.15,2013-07-07 03:36:00,
2013-07-06 22:41:00,72.9,67.8,29.94,SSW,193,0.0,0.0,84,0.00,,,0.00,0,Wunderground v.1.15,2013-07-07 03:41:00,
2013-07-06 22:46:00,73.1,67.6,29.94,SSW,196,0.0,1.0,83,0.00,,,0.00,0,Wunderground v.1.15,2013-07-07 03:46:00,
2013-07-06 22:52:00,73.3,67.8,29.94,SSE,159,0.0,1.0,83,0.00,,,0.00,0,Wunderground v.1.15,2013-07-07 03:52:00,
2013-07-06 22:59:00,73.4,67.6,29.94,WNW,286,0.0,2.0,82,0.00,,,0.00,0,Wunderground v.1.15,2013-07-07 03:59:00,
2013-07-06 23:01:00,73.5,67.7,29.94,SW,222,0.0,0.0,82,0.00,,,0.00,0,Wunderground v.1.15,2013-07-07 04:01:00,
2013-07-06 23:06:00,73.7,67.5,29.94,SSE,163,0.0,4.0,81,0.00,,,0.00,0,Wunderground v.1.15,2013-07-07 04:06:00,
2013-07-06 23:11:00,73.8,67.6,29.94,South,170,0.0,1.0,81,0.00,,,0.00,0,Wunderground v.1.15,2013-07-07 04:11:00,
2013-07-06 23:16:00,73.8,67.6,29.94,South,170,0.0,3.0,81,0.00,,,0.00,0,Wunderground v.1.15,2013-07-07 04:16:00,
2013-07-06 23:21:00,73.7,67.5,29.94,South,184,0.0,1.0,81,0.00,,,0.00,0,Wunderground v.1.15,2013-07-07 04:21:00,
2013-07-06 23:26:00,73.6,67.4,29.94,South,191,1.0,3.0,81,0.00,,,0.00,0,Wunderground v.1.15,2013-07-07 04:26:00,
2013-07-06 23:31:00,73.5,67.3,29.94,South,176,1.0,2.0,81,0.00,,,0.00,0,Wunderground v.1.15,2013-07-07 04:31:00,
2013-07-06 23:36:00,73.3,67.5,29.94,SSE,165,2.0,4.0,82,0.00,,,0.00,0,Wunderground v.1.15,2013-07-07 04:36:00,
2013-07-06 23:41:00,73.1,67.6,29.94,SSE,165,6.0,6.0,83,0.00,,,0.00,0,Wunderground v.1.15,2013-07-07 04:41:00,
2013-07-06 23:46:00,73.0,67.5,29.94,South,182,0.0,6.0,83,0.00,,,0.00,0,Wunderground v.1.15,2013-07-07 04:46:00,
2013-07-06 23:51:00,72.9,67.4,29.94,SSW,196,0.0,3.0,83,0.00,,,0.00,0,Wunderground v.1.15,2013-07-07 04:51:00,
2013-07-06 23:56:00,72.8,67.3,29.94,South,190,3.0,3.0,83,0.00,,,0.00,0,Wunderground v.1.15,2013-07-07 04:56:00,